Zurück zum Katalog

QIANFAN-21

AktivKommunikationPO
NORAD 61554·PAYLOAD·🇨🇳 China

Gestartet Oct 15, 2024 von Taiyuan Satellite Launch Center

Loading…

Nächste Überflüge (nächste 24 Stunden)

TLE

AktuellSource: Space-Track

Epoche: Sep 14, 2026, 13:57 UTC

1 61554U 24185C   26257.58191319  .00000473  00000-0  20385-3 0  9995
2 61554  88.9768  44.6767 0010796 172.9267 187.2080 14.22929466109191

Verfolge QIANFAN-21 in Echtzeit mit AllMySat

Download on the App Store